Location: Espelette
(43.3402°N, 1.4474°W)
Time: 18:23:05
(UTC+00:00)

ERS-1 Rocket - Pass Details

Date: 19 May 2025
Orbit: 747 x 753 km, 98.2° (Epoch: 23 June)

Event Time Altitude Azimuth Distance (km) Brightness Sun altitude
Exits shadow 20:04:55 - 136° (SE) 2,491 5.0 -6.6°
Reaches altitude 10° 20:05:31 10° 134° (SE) 2,271 4.8 -6.6°
Maximum altitude 20:10:04 37° 68° (ENE) 1,172 3.7 -7.3°
Drops below altitude 10° 20:14:39 10° 3° (N) 2,286 6.0 -8.0°
Sets 20:17:05 0° 355° (N) 3,215 6.9 -8.3°
